Preview of NWS' New Version of Forecast
This preview is not operational and should not be used for support decisions.

Regional Weather Roundup (RWR)

Issued by National Weather Service (NWS)

                            
000
ASUS43 KDMX 190001
RWRIA 

WEATHER ROUNDUP FOR IOWA
NATIONAL WEATHER SERVICE DES MOINES IA
600 PM CST MON FEB 18 2019

NOTE: "FAIR" INDICATES FEW OR NO CLOUDS BELOW 12,000 FEET WITH NO
SIGNIFICANT WEATHER AND/OR OBSTRUCTIONS TO VISIBILITY.

* - THESE STATIONS ARE NOT NWS STATIONS...THUS NOT UNDER NWS
QUALITY CONTROL.  THEY ALSO DO NOT REPORT WEATHER SUCH 
AS PRECIPITATION OR FOG.  

IAZ001>003-012>014-020>022-031>034-043>046-190100-
   NORTHWEST IOWA
  
CITY           SKY/WX    TMP DP  RH WIND       PRES   REMARKS
CARROLL *      CLEAR      9   5  85 N5        30.50S WCI   0          
CHEROKEE *     CLEAR      5   2  86 CALM      30.51R                  
DENISON *      CLEAR     12   5  73 CALM      30.52R                  
LE MARS *      CLEAR      7   1  78 CALM      30.51R                  
ORANGE CITY *  CLEAR      7   3  85 NW3       30.48R                  
SHELDON *      CLEAR      5   5 100 CALM      30.47R                  
SIOUX CITY     CLEAR      7   0  73 NW7       30.53R WCI  -5          
6HR MIN TEMP:   7; 6HR MAX TEMP:  15;                                

SPENCER        CLEAR      7   1  76 CALM      30.48S                  
6HR MIN TEMP:   5; 6HR MAX TEMP:  17; 6HR PCP: TRACE;                

STORM LAKE *   CLEAR      9   5  85 W6        30.47S WCI  -1          
$$
 
IAZ055>058-069>071-079>083-090>094-190100-
   SOUTHWEST IOWA
  
CITY           SKY/WX    TMP DP  RH WIND       PRES   REMARKS
ATLANTIC *     CLEAR      9   5  85 CALM      30.51R                  
AUDUBON *      PTCLDY     7   0  72 CALM      30.50R                  
CLARINDA *     CLOUDY    16   9  73 N7        30.55R WCI   6          
COUNCIL BLFS * CLOUDY    14   9  79 NE5       30.50R WCI   6          
CRESTON *      CLOUDY    14   7  73 NW6       30.50R WCI   5          
HARLAN  *      CLEAR      3   0  85 N5        30.51R WCI  -6          
LAMONI         CLEAR     16   8  71 NW5       30.49R WCI   9          
6HR MIN TEMP:  16; 6HR MAX TEMP:  24;                                

RED OAK *      CLOUDY    12   9  85 CALM      30.53R                  
SHENANDOAH *   PTCLDY    14  10  85 NE6       30.53S WCI   5          
$$
 
IAZ047>049-059>061-072>074-084-190100-
   CENTRAL IOWA
  
CITY           SKY/WX    TMP DP  RH WIND       PRES   REMARKS
AMES           CLEAR     11   6  81 NW3       30.52R                  
6HR MIN TEMP:  11; 6HR MAX TEMP:  18;                                

ANKENY *       CLEAR     14   7  73 W7        30.54R WCI   4          
BOONE *        CLEAR     10   7  85 N5        30.51R WCI   2          
CHARITON *     CLEAR     16   9  73 NW7       30.50R WCI   6          
DES MOINES     PTCLDY    13   6  74 NW7       30.53R WCI   3          
6HR MIN TEMP:  13; 6HR MAX TEMP:  20;                                

GRINNELL*      CLEAR     10   6  84 W7        30.51R WCI  -1          
KNOXVILLE *    CLEAR     14  10  85 N8        30.52R WCI   3          
MARSHALLTOWN   CLEAR      3   1  91 W7        30.50R WCI  -9          
6HR MIN TEMP:   2; 6HR MAX TEMP:  17;                                

NEWTON *       CLEAR     10   7  85 N6        30.51R WCI   1          
PELLA *        CLEAR     13   7  77 NW6       30.54R WCI   3          
PERRY *        FAIR       8   4  84 CALM      30.53R                  
$$
 
IAZ004>006-015-016-023>025-035-036-190100-
   NORTH CENTRAL IOWA
  
CITY           SKY/WX    TMP DP  RH WIND       PRES   REMARKS
ALGONA *       CLEAR      9   7  92 NW3       30.48S                  
CLARION *      CLEAR      7   3  85 NW3       30.50R                  
ESTHERVILLE    CLEAR      2  -2  83 NW5       30.47S WCI  -8          
6HR MIN TEMP:   2; 6HR MAX TEMP:  13;                                

FORT DODGE *   CLEAR      9   3  77 W5          N/A  WCI   1          
MASON CITY     CLEAR      4   1  88 NW7       30.49R WCI  -8          
6HR MIN TEMP:   4; 6HR MAX TEMP:  14;                                

FOREST CITY *  FAIR      10   5  79 N5        30.48S WCI   2          
IOWA FALLS *   FAIR       7   3  84 W7        30.51R WCI  -5          
$$

IAZ007>011-017>019-026>030-037>042-050>054-066-190100-
   NORTHEAST IOWA
  
CITY           SKY/WX    TMP DP  RH WIND       PRES   REMARKS
CEDAR RAPIDS   FAIR       7   5  91 NW9       30.48R WCI  -7          
6HR MIN TEMP:   7; 6HR MAX TEMP:  18;                                

CHARLES CITY * FAIR      10   5  79 NW7       30.49R WCI   0          
CLINTON *      FAIR      12   8  84 NW9       30.49R WCI   0          
DECORAH *      FAIR      16  10  79 NW7       30.45R WCI   6          
DUBUQUE        FAIR      16   9  74 W3        30.46R                  
6HR MIN TEMP:  14; 6HR MAX TEMP:  25;                                

OELWEIN *      FAIR       7   5  92 NW8       30.48R WCI  -6          
WATERLOO       FAIR      13   7  77 NW7       30.50R WCI   3          
6HR MIN TEMP:  13; 6HR MAX TEMP:  20;                                

$$
 
IAZ064-065-067-068-078-190100-
   EAST CENTRAL IOWA
  
CITY           SKY/WX    TMP DP  RH WIND       PRES   REMARKS
DAVENPORT      FAIR      16   9  74 NW6       30.50R WCI   7          
6HR MIN TEMP:  16; 6HR MAX TEMP:  23;                                

IOWA CITY      FAIR      18   9  68 NW6       30.52R WCI  10          
6HR MIN TEMP:  17; 6HR MAX TEMP:  25;                                

MT. PLEASANT * CLEAR     21  18  86 N6        30.51R WCI  14          
MUSCATINE *    FAIR      19  12  73 NW6       30.52R WCI  11          
QUAD CITIES    FAIR      23  14  68 NW6       30.49R WCI  16          
6HR MIN TEMP:  23; 6HR MAX TEMP:  29;                                

$$
 
IAZ062-063-075>077-085>089-095>099-190100-
   SOUTHEAST IOWA
  
CITY           SKY/WX    TMP DP  RH WIND       PRES   REMARKS
BURLINGTON     CLEAR     24  13  62 NW5       30.50R WCI  18          
6HR MIN TEMP:  23; 6HR MAX TEMP:  28;                                

FAIRFIELD *    CLEAR     18  10  73 W6        30.51R WCI   9          
KEOKUK *       PTCLDY    25  18  74 NW5       30.51R WCI  19          
OSKALOOSA *    FAIR       9   6  84 NW8       30.52R WCI  -3          
OTTUMWA        CLEAR     12   7  80 N8        30.51R WCI   0          
6HR MIN TEMP:  12; 6HR MAX TEMP:  23;                                

WASHINGTON *   CLEAR     16  12  86 W7        30.52R WCI   6          
$$

ABBREVIATIONS USED IN REMARKS
   TC - TEMPERATURES IN CELSIUS
  WCI - WIND CHILL INDEX
   HX - HEAT INDEX
  VSB - VISIBILITY  
$$